This demonstration page uses our WeatherBlox Daily Observations layout. Learn more.

Left ArrowRight Arrow

Hourly Observations for September 30, 2015

Temp ( °F °C ) Dew Point ( °F °C ) Humidity (%) Winds ( mph kmh ) Pressure ( in mb ) Visibility ( mi km ) Precip ( " mm )
12:53 am 00:53 Mostly Clear 56 13.3 42 5.6 60 60 ESE 5 7 30.19 1022 10 16 0.00 0.00
1:53 am 01:53 Clear 54 12.2 43 6.1 67 67 Calm 30.19 1022 10 16 0.00 0.00
2:53 am 02:53 Clear 53 11.7 42 5.6 66 66 SSE 3 6 30.18 1022 10 16 0.00 0.00
3:53 am 03:53 Mostly Clear 53 11.7 42 5.6 66 66 SE 3 6 30.17 1022 10 16 0.00 0.00
4:53 am 04:53 Partly Cloudy 51 10.6 42 5.6 71 71 Calm 30.17 1022 10 16 0.00 0.00
5:53 am 05:53 Clear 49 9.4 42 5.6 77 77 NE 3 6 30.18 1022 10 16 0.00 0.00
6:53 am 06:53 Clear 48 8.9 42 5.6 80 80 E 7 11 30.20 1023 10 16 0.00 0.00
7:53 am 07:53 Sunny 49 9.4 42 5.6 77 77 E 7 11 30.20 1023 10 16 0.00 0.00
8:53 am 08:53 Mostly Cloudy 56 13.3 43 6.1 62 62 SE 9 15 30.22 1023 10 16 0.00 0.00
9:53 am 09:53 Mostly Cloudy 59 15 44 6.7 58 58 ESE 9 15 30.22 1023 10 16 0.00 0.00
10:53 am 10:53 Mostly Sunny 63 17.2 45 7.2 52 52 SE 12 19 30.22 1023 10 16 0.00 0.00
11:53 am 11:53 Mostly Cloudy 63 17.2 42 5.6 47 47 SE 10 17 30.22 1023 10 16 0.00 0.00
12:53 pm 12:53 Sunny 68 20 41 5 38 38 ESE 12 19 30.19 1022 10 16 0.00 0.00
1:53 pm 13:53 Sunny 70 21.1 38 3.3 31 31 ESE 13 20 30.17 1022 10 16 0.00 0.00
2:53 pm 14:53 Sunny 71 21.7 40 4.4 32 32 SE 12 19 30.15 1021 10 16 0.00 0.00
3:53 pm 15:53 Sunny 72 22.2 41 5 33 33 SE 9 15 30.13 1020 10 16 0.00 0.00
4:53 pm 16:53 Sunny 70 21.1 39 3.9 32 32 SE 10 17 30.12 1020 10 16 0.00 0.00
5:53 pm 17:53 Mostly Sunny 69 20.6 40 4.4 35 35 ESE 9 15 30.13 1020 10 16 0.00 0.00
6:53 pm 18:53 Sunny 67 19.4 41 5 39 39 ESE 7 11 30.14 1021 10 16 0.00 0.00
7:53 pm 19:53 Mostly Clear 65 18.3 40 4.4 40 40 SE 7 11 30.15 1021 10 16 0.00 0.00
8:53 pm 20:53 Partly Cloudy 62 16.7 40 4.4 44 44 ESE 7 11 30.16 1021 10 16 0.00 0.00
9:53 pm 21:53 Cloudy 62 16.7 39 3.9 43 43 ESE 12 19 30.17 1022 10 16 0.00 0.00
10:53 pm 22:53 Cloudy 60 15.6 40 4.4 47 47 ESE 10 17 30.19 1022 10 16 0.00 0.00
11:53 pm 23:53 Cloudy 59 15 40 4.4 49 49 SE 10 17 30.20 1023 10 16 0.00 0.00

Powered by AerisWeather